| time (UTC) | temp F | wind direction | speed knots | gust knots | rain 1hr in | rain 24hr in | rain mn in | humidity % | barometer mb |
| 20260506073034 | 56 | 200 | 0.9 | 4.3 | 0.00 | 0.00 | 0.00 | 84 | 1009.9 |
| 20260506071535 | 56 | 0 | 1.7 | 6.1 | 0.00 | 0.00 | 0.00 | 84 | 1010.2 |
| 20260506061531 | 57 | 148 | 0.9 | 3.5 | 0.00 | 0.00 | 0.00 | 81 | 1010.0 |
| 20260506044538 | 60 | 122 | 0.0 | 2.6 | 0.00 | 0.00 | 0.00 | 72 | 1010.5 |
| 20260506043030 | 61 | 135 | 0.9 | 3.5 | 0.00 | 0.00 | 0.00 | 71 | 1010.4 |
| 20260506041544 | 61 | 0 | 0.0 | 4.3 | 0.00 | 0.00 | 0.00 | 69 | 1010.3 |
| 20260506040035 | 62 | 205 | 1.7 | 6.1 | 0.00 | 0.00 | 0.00 | 68 | 1010.3 |
| 20260506034547 | 63 | 130 | 2.6 | 9.6 | 0.00 | 0.00 | 0.00 | 66 | 1010.4 |
| 20260506033035 | 64 | 205 | 4.3 | 9.6 | 0.00 | 0.00 | 0.00 | 65 | 1010.4 |
| 20260506031532 | 64 | 244 | 2.6 | 11.3 | 0.00 | 0.00 | 0.00 | 64 | 1010.1 |
| 20260506030038 | 64 | 186 | 3.5 | 8.7 | 0.00 | 0.00 | 0.00 | 63 | 1010.1 |
| 20260506024533 | 64 | 175 | 4.3 | 8.7 | 0.00 | 0.00 | 0.00 | 63 | 1010.2 |
| 20260506023034 | 64 | 184 | 3.5 | 9.6 | 0.00 | 0.00 | 0.00 | 63 | 1010.2 |
| 20260506021533 | 65 | 148 | 3.5 | 11.3 | 0.00 | 0.00 | 0.00 | 63 | 1010.1 |
| 20260506020030 | 65 | 216 | 4.3 | 13.9 | 0.00 | 0.00 | 0.00 | 62 | 1010.2 |
| 20260506014529 | 65 | 212 | 3.5 | 8.7 | 0.00 | 0.00 | 0.00 | 62 | 1010.0 |
| 20260506013048 | 65 | 219 | 5.2 | 13.9 | 0.00 | 0.00 | 0.00 | 62 | 1009.7 |
| 20260506011531 | 65 | 142 | 5.2 | 14.8 | 0.00 | 0.00 | 0.00 | 63 | 1009.6 |
| 20260506010035 | 65 | 285 | 1.7 | 9.6 | 0.00 | 0.00 | 0.00 | 63 | 1009.4 |
| 20260506004530 | 65 | 244 | 5.2 | 13.9 | 0.00 | 0.00 | 0.00 | 62 | 1009.3 |
| 20260506003032 | 65 | 171 | 3.5 | 13.9 | 0.00 | 0.00 | 0.00 | 63 | 1009.1 |
| 20260506001533 | 64 | 244 | 2.6 | 6.1 | 0.00 | 0.00 | 0.00 | 65 | 1008.8 |
| 20260506000033 | 65 | 143 | 0.9 | 5.2 | 0.00 | 0.00 | 0.00 | 64 | 1008.8 |
| 20260505234532 | 66 | 196 | 0.9 | 7.0 | 0.00 | 0.00 | 0.00 | 63 | 1008.6 |
| 20260505233031 | 67 | 205 | 1.7 | 10.4 | 0.00 | 0.00 | 0.00 | 61 | 1008.3 |
| 20260505231534 | 67 | 253 | 1.7 | 7.0 | 0.00 | 0.00 | 0.00 | 60 | 1008.5 |
| 20260505230049 | 68 | 190 | 1.7 | 7.8 | 0.00 | 0.00 | 0.00 | 58 | 1008.1 |
| 20260505224530 | 69 | 132 | 2.6 | 6.1 | 0.00 | 0.00 | 0.00 | 57 | 1007.8 |
| 20260505223040 | 69 | 159 | 1.7 | 7.0 | 0.00 | 0.00 | 0.00 | 57 | 1007.7 |
| 20260505221541 | 70 | 186 | 1.7 | 7.0 | 0.00 | 0.00 | 0.00 | 56 | 1007.8 |
| 20260505220048 | 71 | 174 | 2.6 | 10.4 | 0.00 | 0.00 | 0.00 | 53 | 1007.6 |
| 20260505214536 | 71 | 174 | 1.7 | 6.1 | 0.00 | 0.00 | 0.00 | 53 | 1007.5 |
| 20260505213035 | 72 | 153 | 3.5 | 9.6 | 0.00 | 0.00 | 0.00 | 52 | 1007.4 |
| 20260505211535 | 72 | 171 | 2.6 | 9.6 | 0.00 | 0.00 | 0.00 | 52 | 1007.6 |
| 20260505210035 | 73 | 218 | 2.6 | 9.6 | 0.00 | 0.00 | 0.00 | 51 | 1007.4 |
| 20260505204535 | 73 | 142 | 2.6 | 13.0 | 0.00 | 0.00 | 0.00 | 51 | 1007.4 |
| 20260505203033 | 73 | 134 | 2.6 | 12.2 | 0.00 | 0.00 | 0.00 | 50 | 1007.5 |
| 20260505201533 | 74 | 219 | 4.3 | 11.3 | 0.00 | 0.00 | 0.00 | 50 | 1007.4 |
| 20260505200037 | 74 | 178 | 3.5 | 10.4 | 0.00 | 0.00 | 0.00 | 49 | 1007.8 |
| 20260505194530 | 74 | 194 | 2.6 | 11.3 | 0.00 | 0.00 | 0.00 | 51 | 1008.2 |
| 20260505193031 | 74 | 191 | 7.0 | 19.1 | 0.00 | 0.00 | 0.00 | 49 | 1008.4 |
| 20260505191540 | 74 | 155 | 4.3 | 13.0 | 0.00 | 0.00 | 0.00 | 50 | 1008.3 |
| 20260505190034 | 74 | 124 | 2.6 | 17.4 | 0.00 | 0.00 | 0.00 | 49 | 1008.9 |
| 20260505184532 | 75 | 181 | 4.3 | 9.6 | 0.00 | 0.00 | 0.00 | 49 | 1009.1 |
| 20260505183036 | 76 | 150 | 3.5 | 13.0 | 0.00 | 0.00 | 0.00 | 49 | 1009.1 |
| 20260505181529 | 76 | 205 | 3.5 | 10.4 | 0.00 | 0.00 | 0.00 | 48 | 1009.1 |
| 20260505180033 | 77 | 101 | 4.3 | 13.0 | 0.00 | 0.00 | 0.00 | 46 | 1009.2 |
| 20260505174530 | 77 | 188 | 4.3 | 14.8 | 0.00 | 0.00 | 0.00 | 44 | 1009.2 |
| 20260505173035 | 78 | 208 | 5.2 | 12.2 | 0.00 | 0.00 | 0.00 | 43 | 1009.4 |
| 20260505171533 | 77 | 89 | 4.3 | 11.3 | 0.00 | 0.00 | 0.00 | 44 | 1009.4 |
| 20260505170035 | 77 | 180 | 3.5 | 11.3 | 0.00 | 0.00 | 0.00 | 44 | 1009.6 |
| 20260505164532 | 77 | 149 | 2.6 | 12.2 | 0.00 | 0.00 | 0.00 | 46 | 1009.8 |
| 20260505163033 | 77 | 150 | 1.7 | 10.4 | 0.00 | 0.00 | 0.00 | 47 | 1009.9 |
| 20260505161540 | 76 | 119 | 3.5 | 8.7 | 0.00 | 0.00 | 0.00 | 46 | 1010.0 |
| 20260505153033 | 74 | 235 | 3.5 | 13.0 | 0.00 | 0.00 | 0.00 | 46 | 1010.3 |
| 20260505151532 | 74 | 275 | 2.6 | 9.6 | 0.00 | 0.00 | 0.00 | 47 | 1010.6 |
| 20260505124539 | 63 | 0 | 0.0 | 3.5 | 0.00 | 0.00 | 0.00 | 70 | 1010.7 |
| 20260505123037 | 60 | 236 | 0.9 | 3.5 | 0.00 | 0.00 | 0.00 | 76 | 1010.7 |
| 20260505121537 | 58 | 163 | 0.9 | 3.5 | 0.00 | 0.00 | 0.00 | 78 | 1011.1 |
| 20260505120031 | 57 | 102 | 0.9 | 1.7 | 0.00 | 0.00 | 0.00 | 79 | 1010.7 |
| 20260505114535 | 58 | 0 | 0.0 | 2.6 | 0.00 | 0.00 | 0.00 | 78 | 1010.7 |
| 20260505113030 | 58 | 0 | 0.0 | 2.6 | 0.00 | 0.00 | 0.00 | 81 | 1010.6 |
| 20260505111530 | 53 | 202 | 0.9 | 1.7 | 0.00 | 0.00 | 0.00 | 88 | 1010.7 |
| 20260505101540 | 49 | 0 | 0.0 | 0.0 | 0.00 | 0.00 | 0.00 | 87 | 1010.2 |
| 20260505100035 | 50 | 0 | 0.0 | 0.0 | 0.00 | 0.00 | 0.00 | 87 | 1010.0 |
| 20260505094530 | 50 | 0 | 0.0 | 0.0 | 0.00 | 0.00 | 0.00 | 87 | 1010.0 |
| 20260505093033 | 51 | 0 | 0.0 | 0.0 | 0.00 | 0.00 | 0.00 | 86 | 1009.9 |
| 20260505091536 | 51 | 0 | 0.0 | 0.0 | 0.00 | 0.00 | 0.00 | 86 | 1009.9 |
| 20260505090041 | 50 | 178 | 0.0 | 2.6 | 0.00 | 0.00 | 0.00 | 85 | 1009.9 |
| 20260505084537 | 51 | 0 | 0.0 | 0.0 | 0.00 | 0.00 | 0.00 | 84 | 1010.1 |
| 20260505083034 | 51 | 0 | 0.0 | 0.0 | 0.00 | 0.00 | 0.00 | 84 | 1009.9 |
| 20260505081531 | 52 | 0 | 0.0 | 0.0 | 0.00 | 0.00 | 0.00 | 83 | 1010.1 |